Location: Newark
(16.3678°N, 77.8722°E)
Time: 05:30:01
(UTC+00:00)

S-56A Canister/Altair - Pass Details

Date: 13 December 2019
Orbit: 634 x 2498 km, 38.9° (Epoch: 28 January)

Event Time Altitude Azimuth Distance (km) Brightness Sun altitude
Rises 00:10:11 0° 197° (SSW) 4,162 11.3 -13.5°
Reaches altitude 10° 00:13:11 10° 185° (S) 3,454 11.1 -12.9°
Maximum altitude 00:20:45 29° 129° (SE) 2,846 11.3 -11.2°
Drops below altitude 10° 00:30:50 10° 76° (ENE) 4,708 12.4 -8.9°
Sets 00:35:43 0° 67° (ENE) 5,934 12.8 -7.8°
